www.pogodaiklimat.ru

Погода и климат >> Архив погоды >> Беларусь >> Минск


АРХИВ ПОГОДЫ в Минске

Время (UTC), дата Ветер
(напр.,м/с)
 
Видим.   Явления Облачность Т
(С)
Тd
(С)
f
(%)
Тe
(С)
Тes
(С)
Комфортность P
(гПа)
Po
(гПа)
Тmin
(С)
Tmax
(С)
R
(мм)
S
(см)
03 16.03 З 2 14 км 10/10 750 м
[Sc]
+2.4 0.0 84 -1 -1 по сезону 1010.2 982.4
06 16.03 З 2 13 км слабый дождь 10/10 420 м
[Sc]
+3.0 +0.4 83 0 0 тепло 1009.6 981.8 +2.1
09 16.03 СЗ 3 15 км слабый дождь 10/10 240 м
[Sc]
+2.9 +0.5 84 -1 -1 по сезону 1010.0 982.2
12 16.03 СЗ 3 15 км слабый дождь 10/10 420 м
[Sc]
+3.9 +0.3 77 0 0 по сезону 1011.1 983.4
15 16.03 С 3 20 км {дождь} 8/8 330 м
[Sc]
+5.2 -0.8 65 +2 +2 по сезону 1012.8 985.2
18 16.03 СЗ 1 16 км {дождь} ясно +2.7 -0.2 81 +1 +1 по сезону 1015.6 987.6 +5.7 0.5
21 16.03 З 1 11 км ясно +0.1 -0.9 93 -2 -2 по сезону 1017.1 988.8
00 17.03 СЗ 1 13 км ясно -0.6 -1.4 94 -3 -3 по сезону 1017.5 989.1
03 17.03 СЗ 1 12 км ясно -1.8 -2.6 94 -4 -4 по сезону 1017.5 989.0
06 17.03 штиль 0 14 км 3/0
[Ci sp]
+0.8 -0.3 92 -0 +2 тепло 1016.8 988.6 -2.5
09 17.03 Ю 3 30 км 5/0
[Ci sp]
+6.3 -2.5 53 +4 +9 тепло 1014.6 987.0
12 17.03 З 3 22 км 10/3 700 м
[Sc Ac inh]
+7.3 -3.9 45 +5 +6 тепло 1012.1 984.7
15 17.03 Ю 3 22 км 9/3 800 м
[Sc diur, vesp Ac und]
+6.6 -2.4 53 +4 +4 тепло 1009.2 981.8
18 17.03 Ю 3 23 км 10/4 330 м
[Sc As op]
+5.4 -1.5 61 +2 +2 по сезону 1006.1 978.7 +8.3
21 17.03 ЮЗ 3 13 км слабый дождь 10/8 400 м
[Sc As op]
+3.5 +0.9 83 -0 -0 по сезону 1004.4 976.8
00 18.03 Ю 3 7000 м слабый дождь 10/10 330 м
[Frnb Ns]
+1.6 +0.7 94 -3 -3 по сезону 1001.9 974.2
03 18.03 ЮЗ 1 4800 м слабый дождь со снегом 10/10 450 м
[Frnb Ns]
+0.4 -0.1 96 -2 -2 по сезону 1000.7 972.9
06 18.03 З 1 15 км {снег, дождь} 9/9 700 м
[Sc]
+1.5 +0.5 93 -0 -0 по сезону 1000.4 972.7 +0.4 6
09 18.03 З 2 19 км 8/6 630 м
[Sc Ac trans]
+3.6 -0.1 77 +1 +3 по сезону 999.4 972.0
12 18.03 З 2 20 км 9/9 1440 м
[Sc]
+4.2 -1.1 68 +2 +2 по сезону 998.4 971.1
15 18.03 Ю 2 16 км слабый ливневой дождь 10/8 660 м
[Cb calv Ac trans]
+3.9 +0.1 76 +1 +1 по сезону 997.5 970.2
18 18.03 ЮВ 1 6000 м в посл. час ливневой дождь 10/8 500 м
[Sc Ac trans]
+0.6 -0.3 94 -1 -1 по сезону 997.3 969.6 +6.6 1
21 18.03 ЮВ 2 7000 м дымка 8/8 1410 м
[Sc]
+1.3 +0.6 95 -2 -2 по сезону 995.8 968.2
00 19.03 ЮВ 1 8000 м слабый дождь 10/10 300 м
[Sc]
+1.0 +0.1 94 -1 -1 по сезону 995.0 967.4
03 19.03 В 2 12 км слабый дождь 8/8 300 м
[Sc]
+0.7 0.0 95 -3 -3 по сезону 994.4 966.8
06 19.03 В 3 10 км слабый дождь {снег} 10/10 240 м
[Sc]
+0.7 +0.2 96 -4 -4 по сезону 995.7 968.1 +0.4 0.5
09 19.03 В 3 19 км в посл. час ливневой дождь 10/10 300 м
[Sc]
+2.8 +0.4 84 -1 -1 по сезону 997.6 970.1
12 19.03 В 2 20 км в посл. час ливневой дождь 9/9 270 м
[Sc]
+5.3 0.0 69 +3 +4 по сезону 999.1 971.9
15 19.03 С 2 22 км {ливн. осадки} 10/10 330 м
[Sc]
+5.2 0.0 69 +3 +3 по сезону 1001.5 974.2
18 19.03 С 1 21 км {ливн. осадки} 9/9 360 м
[Sc]
+3.0 +0.6 84 +1 +1 по сезону 1004.2 976.6 +6.3 0.3
21 19.03 СВ 1 19 км 9/9 330 м
[Sc]
+1.9 -0.7 83 0 0 по сезону 1005.4 977.6
00 20.03 штиль 0 11 км 8/8 840 м
[Sc]
-0.7 -1.9 92 -2 -2 по сезону 1006.0 977.9
03 20.03 штиль 0 16 км 10/8 660 м
[Sc Ac trans]
0.0 -1.5 90 -1 -1 по сезону 1006.5 978.5
06 20.03 В 1 17 км 8/8 1200 м
[Sc Ac trans]
+0.7 -1.9 83 -1 -1 по сезону 1007.1 979.2 -1.1
09 20.03 ЮЗ 2 17 км 8/6 750 м
[Sc Ci fib]
+3.8 -1.4 69 +1 +4 по сезону 1007.3 979.7
12 20.03 СЗ 2 22 км 8/8 900 м
[Sc Ci fib]
+6.0 -1.2 60 +4 +5 по сезону 1007.2 979.8
15 20.03 ЮЗ 1 19 км 9/6 1410 м
[Sc Ac trans]
+6.3 -1.6 57 +6 +6 тепло 1007.4 980.0
18 20.03 Ю 1 19 км 9/9 1140 м
[Sc]
+5.7 -0.4 65 +5 +5 тепло 1008.2 980.8 +8.7
21 20.03 ЮЗ 1 18 км 8/0
[Ac trans]
+4.6 +0.9 77 +3 +3 тепло 1008.1 980.5
00 21.03 Ю 1 17 км 8/0
[Ac trans]
+3.9 +1.3 83 +3 +3 тепло 1008.1 980.5
03 21.03 Ю 1 13 км 10/0
[As op]
+3.1 +1.3 88 +2 +2 тепло 1007.7 980.0
06 21.03 Ю 2 10 км 10/10 300 м
[Sc]
+3.1 +1.2 87 0 0 по сезону 1007.0 979.3 +3.0
09 21.03 Ю 3 4800 м дождь 10/10 300 м
[Frnb]
+4.1 +3.1 93 0 0 по сезону 1006.5 978.9
12 21.03 Ю 1 4500 м слабая морось {дождь} 10/10 210 м
[Sc]
+5.6 +5.0 96 +4 +4 по сезону 1006.8 979.4
15 21.03 штиль 0 3400 м слабая морось {дождь} 10/10 210 м
[Sc]
+7.5 +7.0 97 +6 +6 тепло 1007.5 980.3
18 21.03 Ю 1 4100 м слабый дождь {морось} 10/10 330 м
[Sc]
+8.3 +7.9 97 +7 +7 тепло 1009.3 982.1 +8.4 3
21 21.03 штиль 0 4700 м дымка {дождь} 10/10 330 м
[Sc]
+5.8 +5.3 97 +5 +5 тепло 1011.3 983.8
00 22.03 Ю 1 2600 м в посл. час туман {дождь} 5/0
[As op Ci fib]
+3.5 +3.3 99 +2 +2 тепло 1013.2 985.4
03 22.03 ЮВ 1 200 м туман ?/? +4.2 +4.1 99 +3 +3 тепло 1013.2 985.5
06 22.03 Ю 2 1200 м в посл. час туман 10/10 240 м
[St]
+4.7 +4.5 99 +2 +2 тепло 1013.8 986.1 +3.1
09 22.03 Ю 2 6000 м дымка {туман} 10/10 300 м
[Sc]
+9.1 +7.8 92 +7 +7 тепло 1014.0 986.7
12 22.03 СЗ 3 19 км слабый дождь {туман} 10/8 870 м
[Sc Ac trans]
+6.8 +5.4 91 +4 +4 по сезону 1015.3 987.8
15 22.03 СЗ 1
{10}
15 км слабый дождь 10/0
[As op]
+2.9 +1.4 90 +1 +1 по сезону 1017.7 989.7
18 22.03 СЗ 1 19 км {дождь} 8/0
[Ac trans]
+3.8 +2.2 89 +2 +2 по сезону 1019.0 991.1 +10.0 3
21 22.03 СЗ 2 15 км ясно +2.7 +1.0 89 -1 -1 по сезону 1020.9 992.8

 

Местоположение метеостанции Минск (город Минск, Беларусь): широта 53.93 долгота 27.63 высота над уровнем моря 231 м.

В архиве по умолчанию представлена погода в Минске за последнюю неделю. Архивные данные за месяц целиком и за предыдущие месяцы, начиная с января 2011 года, Вы можете получить, выбрав интересующий диапазон дат из раскрывающегося списка и нажав кнопку "Ввод!".

Внимание! Время в таблицах - всемирное. Для получения местного времени необходимо прибавить поправку, которая в Минске равна 3 ч.

Смотрите также архив погоды в соседних городах и на ближайших метеорологических станциях:

Погода в Марьиной Горке (Минская область, Беларусь) (63 км)
Погода в Борисове (Минская область, Беларусь) (68 км)
Погода в Воложине (Минская область, Беларусь) (75 км)
Погода в Вилейке (Минская область, Беларусь) (77 км)
Погода в Столбцах (Минская область, Беларусь) (78 км)
Погода в Березино (Минская область, Беларусь) (90 км)
Погода в Барановичах (Брестская область, Беларусь) (92 км)
Погода в Слуцке (Минская область, Беларусь) (100 км)
Погода в Докшицах (Витебская область, Беларусь) (106 км)
Погода в Кличеве (Могилевская область, Беларусь) (121 км)

Пояснения к столбцам:

Ветер - указаны скорость ветра в м/с - средняя за 10 мин, порывы в срок и между сроками (в фигурных скобках) и направление, откуда дует ветер: С - северный, СВ - северо-восточный, В - восточный, ЮВ - юго-восточный, Ю - южный, ЮЗ - юго-западный, З - западный, СЗ - северо-западный.
Видимость - горизонтальная дальность видимости в метрах или километрах. При видимости от 1 до 10 км при отсутствии осадков обычно наблюдается дымка, при ухудшении видимости до 1 км и менее - туман. В сухую погоду видимость может ухудшаться дымом, пылью или мглою.
Явления - указаны атмосферные явления, наблюдавшиеся в срок или в последний час перед сроком; фигурными скобками обозначены явления, наблюдавшиеся между сроками (за 1-3 часа до срока); квадратными скобками обозначены град или гололедные отложения с указанием их диаметра в мм.
Облачность - указаны через наклонную черту общая и нижняя облачность в баллах и высота нижней границы облаков в метрах; квадратными скобками обозначены формы облаков: Ci - перистые, Cs - перисто-слоистые, Cc - перисто-кучевые, Ac - высококучевые, As - высокослоистые, Sc - слоисто-кучевые, Ns - слоисто-дождевые, Cu - кучевые, Cb - кучево-дождевые. Подробнее классификацию облаков см. в Атласе облаков (PDF).
T - Температура воздуха - температура, измеренная на высоте 2 м над землей.
Td - Температура точки росы - температура, при понижении до которой содержащийся в воздухе водяной пар достигнет насыщения.
f - Относительная влажность воздуха - влажноcть воздуха, измеренная на высоте 2 м над землей.
Te - Эффективная температура - температура, которую ощущает одетый по сезону человек в тени. Характеристика душности погоды. При расчете учитывается влияние влажности воздуха и скорости ветра на теплоощущения человека.
Tes - Эффективная температура на солнце - температура, которую ощущает человек, с поправкой на солнечный нагрев. Характеристика знойности погоды. Зависит от высоты солнца над горизонтом, облачности и скорости ветра. Ночью, в пасмурную погоду, а также при ветре 12 м/с и более поправка равна нулю.
P - Атмосферное давление - приведенное к уровню моря атмосферное давление.
Po - Атмосферное давление - измеренное на уровне метеостанции атмосферное давление.
Tmin - Минимальная температура - минимум температуры воздуха на высоте 2 м над землей.
Tmax - Максимальная температура - максимум температуры воздуха на высоте 2 м над землей.
R - Количество осадков - Количество выпавших осадков, мм. При наведении курсора мыши на число - период времени, за который выпало указанное количество осадков.
S - Снежный покров - Высота снежного покрова, см. При наведении курсора мыши на число - состояние снежного покрова и степень покрытия местности в баллах.